CARTOSAT-2F (43111 NORAD) Tracking and Keplerian Element Data

This shows tracking and keplerian element data for the satellite.

Feedback or suggestion? Click here.




ElementValue
Catalog43111
NameCARTOSAT-2F
Epoch Orbit35513
Epoch Day160.21518743
Epoch Year2024
RAAN219.8478
Inclination97.4313
Eccentricity8.78E-05
Argument of Perigee69.8626
Mean Anonmoly290.2703
Mean Motion15.19227082
Decay Rate9.865E-05
L11 43111U 18004A 24160.21518743 .00009865 00000+0 47128-3 0 9999
L22 43111 97.4313 219.8478 0000878 69.8626 290.2703 15.19227082355135



Live tracking and technical data element details for CARTOSAT-2F (NORAD 43111). CARTOSAT-2F can be tracked NOW for your location showing map with azimuth and elevation plus other details from your city location.







IsCatalogInMostPopularTable: catalog: 43111, numindb: 687
Update: records affected: 1



GetName: 43111 CARTOSAT-2F

Hit Count: updated at: Mon, 17 Jun 2024 23:30:29 GMT